Wind_Speed
5 6 6 5 6 6 5 4 3 3 3 3 3 3 3 3 3 3 3 3 3 3 3 3 4 4 5 5 5 5 5 5 5 5 6 6 6 6 6 6 6 6 7
4 5 5 5 5 5 4 3 3 2 3 3 2 2 2 2 2 2 3 3 3 3 3 3 3 4 4 4 4 4 4 5 5 5 5 6 6 6 6 6 6 7 7
4 4 3 3 3 3 3 2 1 1 2 2 2 2 2 2 2 2 2 2 2 2 2 3 3 3 3 3 4 4 4 4 4 5 5 5 5 5 5 5 6 6 7
3 3 3 2 2 3 2 1 0 1 2 2 2 2 2 2 2 2 2 2 2 1 1 2 2 3 3 3 3 3 4 4 4 4 4 4 5 5 5 5 6 6 6
3 2 2 2 2 2 3 2 1 1 2 2 2 2 2 2 2 2 2 2 2 1 1 1 2 2 3 3 3 3 3 4 4 4 4 4 4 5 5 5 6 6 6
3 3 2 3 3 3 3 2 1 1 2 2 2 2 2 1 1 2 2 2 1 1 1 1 1 2 2 3 3 3 3 3 4 3 3 3 4 4 5 5 6 6 6
3 3 3 3 3 2 2 2 2 2 2 2 2 2 2 2 1 1 1 1 1 2 1 0 1 1 2 2 3 3 3 3 3 3 3 3 3 3 4 5 5 5 5
2 2 2 2 2 2 1 2 2 2 2 2 2 2 2 2 2 1 2 1 2 2 1 1 1 1 2 2 2 3 3 3 3 3 3 3 3 3 4 4 5 5 5
2 2 2 1 1 1 1 1 2 2 2 2 2 2 1 2 2 2 2 2 2 1 1 1 1 1 1 2 2 2 2 3 3 2 2 2 2 3 3 3 4 4 4
3 2 2 2 1 0 1 1 2 2 3 2 1 2 1 2 2 2 1 1 2 1 1 1 1 1 1 1 1 2 2 2 3 2 2 1 1 2 2 2 3 3 3
4 3 2 2 1 1 1 2 2 3 4 3 2 2 2 2 2 1 1 1 1 1 1 1 1 2 2 1 1 2 2 3 2 2 2 1 1 1 2 2 2 2 3
4 4 3 2 1 1 1 1 2 3 4 4 3 3 3 3 2 2 2 2 1 1 0 0 1 2 2 2 2 1 1 2 2 2 2 2 1 1 1 2 2 2 3
6 4 3 3 2 1 1 1 2 3 4 5 5 4 4 4 3 3 3 3 2 2 0 0 1 2 2 1 2 1 1 1 2 1 1 2 1 1 1 2 2 2 3
8 6 4 3 2 1 2 2 3 4 4 5 5 5 5 5 4 3 4 4 3 2 1 1 1 1 1 1 1 1 1 1 2 1 1 1 1 1 1 1 1 2 3
6 5 4 3 2 3 4 4 4 4 4 5 6 6 6 6 5 4 4 4 3 2 2 1 1 1 1 1 1 0 0 1 1 1 1 1 1 1 0 1 1 2 2
5 4 3 3 3 4 5 5 5 5 5 6 7 8 8 7 5 5 4 4 3 2 2 2 1 1 1 0 1 1 1 0 1 1 1 2 1 1 0 1 1 2 2
5 5 4 4 4 5 4 4 4 4 6 6 7 8 8 7 7 6 6 5 4 4 3 3 2 2 2 1 1 1 1 1 1 0 1 1 2 1 1 1 1 1 2
6 6 6 6 6 5 4 4 4 5 6 7 7 8 9 9 8 8 7 6 5 4 4 4 3 3 3 2 2 2 2 2 1 0 1 1 2 2 1 0 1 1 1
8 7 6 7 7 6 5 4 5 6 7 8 7 7 9 10 9 8 8 7 7 6 5 5 5 4 4 4 3 3 2 2 2 1 1 0 1 1 1 0 1 1 1
7 8 7 7 7 7 6 5 5 5 6 7 7 7 8 10 10 9 8 8 8 8 7 7 6 6 6 5 4 4 4 3 3 3 2 1 1 1 1 0 1 1 2
8 8 7 8 7 7 6 6 6 5 5 5 7 8 9 10 10 10 9 9 9 9 9 8 8 7 7 7 6 6 5 5 6 5 4 3 3 3 2 2 2 2 2
8 7 8 8 7 7 7 7 6 5 5 6 6 8 9 10 10 10 10 10 10 10 9 10 10 9 9 8 8 7 7 7 7 7 6 5 5 4 4 3 3 2 3
10 9 9 8 7 8 7 7 7 6 6 6 7 8 10 10 11 11 11 11 11 11 10 10 11 11 10 10 9 9 8 8 8 8 8 8 8 7 6 6 5 5 4
10 9 9 8 8 7 7 7 6 6 6 7 8 9 11 11 12 12 12 12 11 11 11 12 12 12 11 11 11 10 10 9 9 9 9 9 9 8 9 8 7 7 7
10 9 8 8 8 7 7 7 7 7 7 8 8 9 10 12 13 13 13 13 13 12 12 12 13 12 13 13 12 12 11 11 11 11 11 11 11 11 11 10 10 10 9
8 7 8 8 7 7 7 7 7 7 8 8 9 9 11 13 14 14 14 15 14 14 13 13 13 14 14 14 14 13 13 13 13 12 12 12 12 13 13 12 12 12 13
Wind_Direction
98 106 109 108 107 100 91 81 70 58 49 42 46 52 57 60 65 73 81 82 81 81 84 85 85 88 89 92 94 91 90 90 90 86 85 85 85 84 82 83 85 86 88
104 110 114 115 112 106 98 88 73 53 35 23 27 28 35 41 48 57 64 64 65 69 76 78 79 85 89 92 92 91 92 92 92 90 87 84 82 83 83 84 86 88 91
114 116 120 125 121 120 116 102 81 29 3 358 1 3 10 18 23 30 36 38 41 63 74 77 78 85 87 87 87 89 91 90 91 90 89 86 82 83 85 85 90 93 95
112 126 127 133 139 149 148 155 243 324 340 337 340 344 348 357 8 10 15 17 19 54 76 80 82 85 84 84 87 91 89 87 90 89 87 84 82 86 89 90 96 97 99
98 113 126 134 142 165 177 190 216 266 311 318 325 329 326 335 350 359 3 359 13 36 55 80 83 82 81 81 85 91 90 90 91 89 85 83 84 89 94 99 102 104 104
88 100 122 134 143 159 181 196 220 253 292 304 303 301 295 305 327 336 339 347 6 18 38 72 71 76 81 85 87 91 91 97 98 92 89 86 88 96 97 104 105 106 106
79 98 117 134 149 160 181 199 230 255 279 292 292 292 284 280 287 311 330 349 356 349 357 26 63 72 79 86 89 91 89 98 105 98 90 87 95 101 102 107 111 108 107
62 90 106 127 154 176 195 217 246 266 284 288 292 290 290 290 280 295 320 338 348 348 351 15 47 68 74 90 92 84 77 86 102 101 87 85 100 105 107 113 120 119 113
46 65 94 108 137 167 213 240 271 271 268 260 275 284 287 288 287 299 318 333 342 342 357 18 46 62 71 90 93 83 75 77 82 90 84 87 103 111 112 113 119 122 122
51 53 66 68 67 315 270 263 279 287 269 258 260 272 293 304 285 278 303 333 345 348 353 22 57 72 78 86 89 89 78 76 77 78 85 93 115 122 120 126 130 130 129
49 50 53 62 48 2 313 285 281 294 272 250 249 252 275 290 273 260 274 298 318 330 342 46 70 63 76 100 98 89 80 83 84 81 75 80 87 132 140 142 145 143 137
51 55 51 42 29 17 2 303 267 286 267 243 244 249 255 266 258 246 264 270 287 304 324 66 89 70 88 108 103 88 83 75 74 73 58 51 67 116 152 159 157 154 152
39 36 36 29 23 14 5 315 269 270 260 240 244 245 246 251 247 248 257 262 275 282 249 88 94 89 95 120 112 97 87 60 51 48 30 34 43 79 139 157 171 174 171
27 29 21 3 356 339 338 323 290 260 262 245 240 240 241 238 240 247 256 257 266 257 207 185 119 120 102 99 96 94 83 35 29 16 26 39 51 57 98 159 174 183 185
24 23 6 340 317 313 316 306 285 271 264 245 240 237 237 236 237 240 248 251 253 242 210 196 193 160 130 89 100 232 22 25 25 33 44 54 50 40 70 144 163 175 188
19 11 356 325 309 308 305 300 297 283 267 248 239 240 233 230 234 233 235 248 245 229 220 224 222 171 148 133 161 189 175 284 37 49 46 44 38 41 80 163 195 206 216
16 8 348 331 317 309 301 298 306 287 267 251 242 234 227 227 229 228 228 235 229 221 219 225 222 204 196 208 211 203 204 225 259 9 44 49 53 57 84 158 188 204 224
359 360 354 347 340 333 321 299 292 284 266 254 245 233 225 222 225 221 221 226 223 217 216 215 213 215 215 218 218 217 222 222 211 182 80 78 71 62 66 124 194 210 226
341 350 348 347 343 336 327 305 298 288 270 252 244 231 221 219 222 220 215 218 222 220 220 220 215 224 227 229 225 228 239 231 201 201 195 138 55 30 31 51 210 218 223
337 340 337 338 334 328 320 311 301 293 274 247 236 225 217 213 217 218 219 218 221 223 225 224 219 227 230 235 236 238 240 232 222 221 218 232 269 295 288 273 228 220 231
329 331 336 335 330 322 308 305 302 293 274 249 229 220 217 216 218 222 225 227 227 227 229 225 223 230 231 233 236 238 241 236 233 233 236 247 251 254 254 257 251 244 241
331 325 325 330 329 321 308 300 292 282 266 244 229 221 221 223 222 223 226 229 231 230 231 227 227 230 232 233 237 238 234 233 234 238 244 248 251 255 259 260 256 255 258
323 322 321 321 319 313 305 302 288 275 265 248 234 229 226 229 226 227 229 229 232 234 233 228 228 230 233 234 236 238 237 233 237 241 245 248 249 253 258 261 261 261 269
320 313 314 312 311 306 299 299 295 276 265 257 243 238 232 233 233 233 233 232 233 235 234 231 231 231 235 236 238 240 241 240 243 246 248 250 252 253 256 257 260 259 263
313 306 306 305 307 305 299 297 289 272 266 264 255 246 238 240 239 237 237 235 235 235 235 236 237 236 236 237 239 242 243 243 244 247 251 253 252 253 253 254 255 257 260
310 308 310 311 307 307 300 294 286 274 266 264 259 251 248 245 242 242 243 241 238 239 239 239 240 239 239 239 242 244 245 244 245 248 250 253 253 253 253 255 256 258 261
Height
5895 5895 5895 5896 5896 5897 5898 5898 5899 5899 5899 5899 5899 5899 5898 5898 5898 5897 5897 5896 5896 5896 5895 5895 5895 5895 5894 5894 5894 5894 5893 5893 5893 5893 5892 5892 5891 5891 5891 5891 5891 5890 5890
5896 5896 5896 5897 5897 5898 5899 5899 5900 5900 5900 5900 5900 5900 5899 5899 5898 5898 5898 5897 5897 5896 5896 5896 5896 5895 5895 5895 5895 5894 5894 5894 5894 5893 5893 5893 5892 5892 5892 5892 5892 5891 5891
5896 5896 5897 5897 5898 5899 5899 5900 5900 5901 5901 5901 5901 5901 5900 5900 5899 5899 5898 5898 5898 5897 5897 5897 5897 5896 5896 5896 5896 5895 5895 5894 5894 5894 5894 5894 5893 5893 5893 5893 5893 5892 5892
5896 5897 5897 5898 5898 5899 5900 5900 5901 5901 5901 5901 5901 5902 5901 5901 5900 5900 5899 5899 5899 5898 5898 5898 5898 5897 5897 5896 5896 5896 5895 5895 5895 5895 5894 5894 5894 5894 5894 5894 5893 5893 5893
5897 5897 5898 5898 5899 5899 5900 5901 5901 5902 5902 5902 5902 5902 5902 5902 5901 5901 5900 5900 5900 5899 5899 5899 5898 5898 5898 5897 5897 5896 5896 5895 5895 5895 5895 5895 5895 5895 5894 5894 5894 5894 5894
5897 5898 5898 5898 5899 5900 5900 5901 5901 5902 5902 5902 5902 5903 5902 5902 5902 5902 5901 5901 5900 5900 5899 5899 5899 5899 5898 5898 5897 5897 5896 5896 5896 5896 5896 5895 5895 5895 5895 5895 5895 5895 5895
5897 5898 5898 5899 5899 5900 5900 5901 5901 5902 5902 5902 5903 5903 5903 5903 5902 5902 5902 5901 5901 5900 5900 5900 5899 5899 5899 5898 5898 5897 5897 5896 5896 5896 5896 5896 5896 5896 5896 5896 5896 5896 5896
5898 5898 5898 5899 5899 5900 5900 5901 5901 5902 5902 5902 5903 5903 5903 5903 5903 5902 5902 5902 5901 5901 5901 5900 5900 5900 5899 5899 5898 5898 5898 5897 5897 5897 5897 5896 5897 5897 5897 5896 5896 5897 5897
5898 5898 5899 5899 5900 5900 5900 5901 5901 5902 5902 5902 5903 5903 5903 5903 5903 5903 5903 5902 5902 5901 5901 5901 5901 5900 5900 5899 5899 5899 5898 5898 5897 5897 5897 5897 5897 5897 5897 5897 5897 5897 5897
5899 5899 5899 5899 5899 5900 5900 5901 5901 5901 5902 5902 5902 5903 5903 5903 5903 5903 5903 5903 5902 5902 5901 5901 5901 5900 5900 5900 5900 5899 5899 5899 5898 5898 5898 5898 5898 5897 5897 5897 5897 5897 5897
5899 5899 5899 5899 5899 5899 5899 5900 5901 5901 5901 5902 5902 5902 5903 5903 5903 5903 5903 5903 5902 5902 5901 5901 5901 5901 5901 5900 5900 5900 5900 5899 5899 5899 5898 5898 5898 5898 5898 5898 5898 5898 5898
5899 5899 5899 5899 5899 5899 5899 5899 5899 5900 5900 5901 5901 5902 5902 5902 5902 5903 5903 5903 5902 5902 5902 5901 5901 5901 5901 5901 5901 5900 5900 5900 5899 5899 5899 5898 5898 5898 5898 5898 5898 5898 5898
5898 5898 5898 5898 5898 5898 5898 5898 5898 5898 5899 5899 5900 5901 5901 5901 5902 5902 5902 5902 5902 5902 5902 5902 5902 5902 5901 5901 5901 5901 5901 5900 5900 5900 5899 5899 5899 5898 5898 5898 5898 5898 5898
5898 5898 5898 5898 5898 5897 5897 5897 5897 5897 5898 5898 5899 5900 5900 5900 5901 5901 5902 5902 5902 5902 5902 5902 5902 5902 5902 5902 5901 5901 5901 5900 5900 5900 5899 5899 5899 5899 5898 5898 5898 5898 5898
5898 5898 5898 5897 5897 5897 5896 5896 5896 5896 5897 5896 5897 5898 5899 5900 5900 5901 5901 5901 5901 5901 5901 5902 5902 5902 5902 5902 5902 5901 5901 5901 5900 5900 5900 5899 5899 5899 5898 5898 5898 5898 5898
5899 5898 5898 5896 5896 5895 5895 5895 5894 5894 5895 5895 5895 5896 5897 5898 5899 5900 5900 5900 5901 5901 5901 5901 5901 5902 5902 5902 5902 5901 5901 5901 5901 5901 5900 5900 5899 5899 5898 5898 5898 5898 5898
5898 5898 5897 5895 5894 5894 5894 5893 5893 5893 5893 5893 5894 5894 5895 5897 5897 5898 5899 5900 5900 5900 5900 5901 5901 5901 5902 5902 5902 5902 5902 5902 5901 5901 5901 5900 5900 5899 5899 5898 5898 5898 5898
5896 5896 5895 5894 5893 5893 5892 5892 5892 5891 5891 5891 5891 5893 5894 5895 5896 5897 5898 5898 5899 5899 5900 5900 5901 5901 5901 5902 5902 5902 5902 5902 5901 5901 5901 5900 5900 5899 5899 5898 5898 5898 5898
5895 5894 5893 5892 5892 5891 5891 5891 5890 5889 5889 5889 5889 5890 5892 5893 5894 5895 5896 5897 5898 5899 5899 5900 5900 5901 5901 5901 5901 5901 5901 5901 5901 5901 5901 5901 5900 5900 5899 5899 5898 5898 5898
5894 5893 5892 5891 5890 5890 5889 5889 5888 5888 5887 5887 5887 5888 5890 5892 5893 5894 5895 5896 5897 5898 5898 5899 5899 5900 5900 5900 5901 5901 5901 5901 5901 5901 5901 5901 5900 5900 5899 5899 5898 5898 5897
5892 5891 5890 5889 5888 5888 5887 5887 5886 5886 5886 5886 5886 5887 5888 5890 5891 5892 5894 5895 5896 5896 5896 5897 5898 5898 5899 5899 5900 5900 5901 5901 5901 5901 5900 5900 5900 5900 5899 5898 5898 5897 5897
5891 5890 5889 5888 5887 5886 5885 5885 5885 5884 5884 5884 5885 5886 5887 5888 5889 5890 5892 5893 5894 5894 5895 5895 5896 5897 5898 5898 5899 5899 5899 5900 5900 5900 5900 5900 5899 5899 5899 5898 5898 5897 5897
5890 5889 5887 5887 5886 5885 5884 5883 5883 5883 5882 5882 5883 5884 5885 5885 5887 5888 5889 5890 5891 5892 5892 5893 5894 5895 5896 5897 5897 5898 5898 5899 5899 5899 5899 5899 5899 5898 5898 5897 5897 5896 5896
5888 5887 5886 5885 5884 5883 5882 5881 5881 5881 5881 5881 5881 5881 5882 5883 5884 5886 5887 5888 5889 5889 5890 5891 5892 5893 5894 5894 5895 5896 5897 5897 5897 5897 5897 5897 5897 5897 5897 5896 5896 5895 5895
5885 5884 5883 5882 5882 5881 5880 5880 5879 5879 5879 5879 5879 5879 5880 5881 5882 5883 5884 5885 5886 5887 5887 5888 5889 5890 5891 5892 5892 5893 5894 5894 5895 5895 5895 5895 5895 5895 5895 5894 5894 5894 5893
5882 5881 5881 5880 5879 5879 5878 5877 5877 5877 5877 5877 5877 5877 5877 5878 5879 5880 5881 5882 5883 5884 5885 5885 5886 5887 5888 5888 5889 5890 5890 5891 5892 5892 5892 5892 5893 5893 5892 5892 5892 5891 5890